Hourly Weather Barnsley

Today, 19 June, Saturday

Time Temperature Precipitation Wind Pressure Humidity
00:00 +10°C° 0.1 mm 2 mps 751 mmHg 95%
01:00 +11°C° 0 mm 1 mps 751 mmHg 95%
02:00 +11°C° 0 mm 1 mps 751 mmHg 95%
03:00 +11°C° 0 mm 1 mps 751 mmHg 95%
04:00 +11°C° 0 mm 1 mps 751 mmHg 94%
05:00 +12°C° 0 mm 1 mps 751 mmHg 93%
06:00 +12°C° 0 mm 1 mps 751 mmHg 92%
07:00 +13°C° 0 mm 1 mps 751 mmHg 87%
08:00 +13°C° 0 mm 2 mps 751 mmHg 83%
09:00 +14°C° 0 mm 2 mps 751 mmHg 78%
10:00 +15°C° 0 mm 2 mps 751 mmHg 76%
11:00 +15°C° 0 mm 2 mps 751 mmHg 74%
12:00 +16°C° 0 mm 3 mps 751 mmHg 71%
13:00 +16°C° 0 mm 3 mps 750 mmHg 73%
14:00 +16°C° 0 mm 3 mps 750 mmHg 75%
15:00 +16°C° 0 mm 3 mps 750 mmHg 77%
16:00 +14°C° 0 mm 3 mps 750 mmHg 78%
17:00 +14°C° 0 mm 3 mps 750 mmHg 80%
18:00 +14°C° 0 mm 3 mps 749 mmHg 82%
19:00 +13°C° 0 mm 3 mps 749 mmHg 83%
20:00 +13°C° 0 mm 3 mps 749 mmHg 85%
21:00 +12°C° 0 mm 3 mps 749 mmHg 87%
22:00 +12°C° 0 mm 3 mps 749 mmHg 87%
23:00 +11°C° 0 mm 3 mps 748 mmHg 88%

Tomorrow, 20 June, Sunday

Time Temperature Precipitation Wind Pressure Humidity
00:00 +11°C° 0 mm 3 mps 748 mmHg 89%
01:00 +11°C° 0.5 mm 3 mps 748 mmHg 91%
02:00 +10°C° 0.5 mm 3 mps 747 mmHg 94%
03:00 +10°C° 0.5 mm 3 mps 747 mmHg 96%
04:00 +10°C° 2.1 mm 3 mps 747 mmHg 97%
05:00 +10°C° 2.1 mm 3 mps 746 mmHg 97%
06:00 +9°C° 2.1 mm 3 mps 746 mmHg 98%
07:00 +9°C° 0.6 mm 3 mps 746 mmHg 97%
08:00 +10°C° 0.6 mm 3 mps 747 mmHg 97%
09:00 +10°C° 0.6 mm 3 mps 747 mmHg 97%
10:00 +10°C° 0.1 mm 3 mps 747 mmHg 97%
11:00 +10°C° 0.1 mm 3 mps 747 mmHg 97%
12:00 +10°C° 0.1 mm 3 mps 747 mmHg 96%
13:00 +10°C° 0.1 mm 3 mps 747 mmHg 96%
14:00 +10°C° 0.1 mm 3 mps 747 mmHg 96%
15:00 +10°C° 0.1 mm 3 mps 747 mmHg 96%
16:00 +10°C° 0 mm 3 mps 747 mmHg 96%
17:00 +10°C° 0 mm 3 mps 748 mmHg 95%
18:00 +10°C° 0 mm 3 mps 748 mmHg 95%
19:00 +10°C° 0 mm 3 mps 748 mmHg 95%
20:00 +10°C° 0 mm 3 mps 748 mmHg 95%
21:00 +10°C° 0 mm 2 mps 748 mmHg 95%
22:00 +9°C° 0 mm 3 mps 748 mmHg 95%
23:00 +9°C° 0 mm 3 mps 748 mmHg 95%

Day after tomorrow, 21 June, Monday

Time Temperature Precipitation Wind Pressure Humidity
00:00 +9°C° 0 mm 3 mps 748 mmHg 95%
01:00 +9°C° 0 mm 3 mps 748 mmHg 95%
02:00 +8°C° 0 mm 3 mps 749 mmHg 95%
03:00 +8°C° 0 mm 3 mps 749 mmHg 94%
04:00 +8°C° 0 mm 3 mps 749 mmHg 93%
05:00 +8°C° 0 mm 3 mps 749 mmHg 92%
06:00 +8°C° 0 mm 4 mps 749 mmHg 90%
07:00 +10°C° 0.1 mm 4 mps 749 mmHg 88%
08:00 +11°C° 0.1 mm 4 mps 749 mmHg 86%
09:00 +11°C° 0.1 mm 4 mps 750 mmHg 84%
10:00 +11°C° 0.5 mm 4 mps 750 mmHg 86%
11:00 +11°C° 0.5 mm 4 mps 750 mmHg 88%
12:00 +11°C° 0.5 mm 4 mps 750 mmHg 91%
13:00 +10°C° 0.6 mm 5 mps 751 mmHg 92%
14:00 +10°C° 0.6 mm 5 mps 751 mmHg 93%
15:00 +10°C° 0.6 mm 5 mps 751 mmHg 94%
16:00 +10°C° 0.2 mm 5 mps 751 mmHg 94%
17:00 +10°C° 0.2 mm 5 mps 752 mmHg 94%
18:00 +11°C° 0.2 mm 4 mps 752 mmHg 94%
19:00 +10°C° 0.4 mm 4 mps 752 mmHg 95%
20:00 +10°C° 0.4 mm 4 mps 752 mmHg 95%
21:00 +10°C° 0.4 mm 4 mps 753 mmHg 96%
22:00 +10°C° 0.2 mm 4 mps 753 mmHg 96%
23:00 +10°C° 0.2 mm 4 mps 753 mmHg 96%

22 June, Tuesday

Time Temperature Precipitation Wind Pressure Humidity
00:00 +10°C° 0.2 mm 4 mps 754 mmHg 96%
01:00 +8°C° 0 mm 4 mps 754 mmHg 95%
02:00 +8°C° 0 mm 4 mps 754 mmHg 95%
03:00 +8°C° 0 mm 4 mps 754 mmHg 94%
04:00 +8°C° 0 mm 4 mps 754 mmHg 93%
05:00 +8°C° 0 mm 4 mps 754 mmHg 92%
06:00 +8°C° 0 mm 4 mps 755 mmHg 90%
07:00 +9°C° 0 mm 5 mps 755 mmHg 82%
08:00 +10°C° 0 mm 5 mps 755 mmHg 73%
09:00 +13°C° 0 mm 6 mps 755 mmHg 64%
10:00 +14°C° 0 mm 5 mps 755 mmHg 61%
11:00 +14°C° 0 mm 5 mps 755 mmHg 58%
12:00 +15°C° 0 mm 5 mps 755 mmHg 54%
13:00 +15°C° 0 mm 5 mps 755 mmHg 54%
14:00 +15°C° 0 mm 5 mps 755 mmHg 54%
15:00 +15°C° 0 mm 5 mps 755 mmHg 53%
16:00 +15°C° 0 mm 4 mps 756 mmHg 56%
17:00 +14°C° 0 mm 4 mps 756 mmHg 59%
18:00 +14°C° 0 mm 4 mps 756 mmHg 62%
19:00 +12°C° 0 mm 3 mps 756 mmHg 69%
20:00 +12°C° 0 mm 2 mps 756 mmHg 75%
21:00 +9°C° 0 mm 2 mps 757 mmHg 81%
22:00 +8°C° 0 mm 2 mps 757 mmHg 83%
23:00 +8°C° 0 mm 2 mps 757 mmHg 85%

23 June, Wednesday

Time Temperature Precipitation Wind Pressure Humidity
00:00 +8°C° 0 mm 1 mps 757 mmHg 87%
01:00 +8°C° 0 mm 1 mps 757 mmHg 86%
02:00 +8°C° 0 mm 1 mps 757 mmHg 86%
03:00 +8°C° 0 mm 1 mps 757 mmHg 85%
04:00 +8°C° 0 mm 1 mps 757 mmHg 81%
05:00 +9°C° 0 mm 1 mps 757 mmHg 78%
06:00 +10°C° 0 mm 1 mps 757 mmHg 74%
07:00 +12°C° 0 mm 1 mps 757 mmHg 66%
08:00 +13°C° 0 mm 1 mps 757 mmHg 59%
09:00 +15°C° 0 mm 2 mps 757 mmHg 51%
10:00 +16°C° 0 mm 2 mps 757 mmHg 47%
11:00 +17°C° 0 mm 2 mps 757 mmHg 43%
12:00 +18°C° 0 mm 2 mps 757 mmHg 39%
13:00 +19°C° 0 mm 2 mps 756 mmHg 39%
14:00 +19°C° 0 mm 2 mps 756 mmHg 38%
15:00 +20°C° 0 mm 2 mps 756 mmHg 38%
16:00 +19°C° 0 mm 2 mps 756 mmHg 43%
17:00 +19°C° 0 mm 2 mps 756 mmHg 47%
18:00 +20°C° 0 mm 1 mps 756 mmHg 51%
19:00 +16°C° 0 mm 1 mps 756 mmHg 60%
20:00 +14°C° 0 mm 1 mps 756 mmHg 69%
21:00 +12°C° 0 mm 1 mps 757 mmHg 78%
22:00 +12°C° 0 mm 1 mps 757 mmHg 80%
23:00 +11°C° 0 mm 1 mps 757 mmHg 81%

24 June, Thursday

Time Temperature Precipitation Wind Pressure Humidity
00:00 +10°C° 0 mm 1 mps 757 mmHg 83%
01:00 +10°C° 0 mm 1 mps 756 mmHg 83%
02:00 +10°C° 0 mm 1 mps 756 mmHg 82%
03:00 +9°C° 0 mm 1 mps 756 mmHg 81%
04:00 +11°C° 0 mm 1 mps 756 mmHg 78%
05:00 +12°C° 0 mm 1 mps 756 mmHg 75%
06:00 +13°C° 0 mm 1 mps 756 mmHg 72%
07:00 +14°C° 0 mm 2 mps 756 mmHg 67%
08:00 +16°C° 0 mm 2 mps 756 mmHg 62%
09:00 +18°C° 0 mm 3 mps 756 mmHg 57%
10:00 +19°C° 0 mm 3 mps 755 mmHg 57%
11:00 +20°C° 0 mm 3 mps 755 mmHg 57%
12:00 +21°C° 0 mm 3 mps 755 mmHg 58%
13:00 +20°C° 0 mm 3 mps 755 mmHg 62%
14:00 +20°C° 0 mm 4 mps 755 mmHg 66%
15:00 +19°C° 0 mm 4 mps 754 mmHg 70%
16:00 +19°C° 0 mm 4 mps 754 mmHg 73%
17:00 +18°C° 0 mm 4 mps 754 mmHg 76%
18:00 +17°C° 0 mm 4 mps 754 mmHg 79%
19:00 +16°C° 0 mm 3 mps 754 mmHg 80%
20:00 +16°C° 0 mm 2 mps 754 mmHg 82%
21:00 +15°C° 0 mm 2 mps 754 mmHg 84%
22:00 +15°C° 0.1 mm 2 mps 753 mmHg 87%
23:00 +14°C° 0.1 mm 1 mps 753 mmHg 90%
Show more